This is the latest recevied weather packets stored in our database for station/object IW1PPB-3. If no packets are shown the sender has not sent any weather packets the latest 1 day(s).
| Time | Temp. | Humidity | Pressure | Rain* | Wind** | Luminosity | Snow |
|---|---|---|---|---|---|---|---|
| 1777960419 | 13.89° C | - | - | 0 mm | 0.89 m/s, 360° | - | - |
| 1777959810 | 13.89° C | - | - | 0 mm | 0 m/s | - | - |
| 1777959205 | 13.89° C | - | - | 0 mm | 0.89 m/s, 360° | - | - |
| 1777958612 | 13.89° C | - | - | 0 mm | 0 m/s | - | - |
| 1777958004 | 13.89° C | - | - | 0 mm | 0.89 m/s, 360° | - | - |
| 1777957411 | 13.89° C | - | - | 1.02 mm | 0.89 m/s, 360° | - | - |
| 1777956813 | 13.33° C | - | - | 3.05 mm | 0 m/s | - | - |
| 1777956204 | 13.33° C | - | - | 7.87 mm | 0.45 m/s, 360° | - | - |
| 1777955624 | 13.33° C | - | - | 14.99 mm | 0.89 m/s, 360° | - | - |
| 1777955007 | 13.89° C | - | - | 19.05 mm | 1.34 m/s, 360° | - | - |
| 1777954422 | 13.33° C | - | - | 25.91 mm | 1.34 m/s, 360° | - | - |
| 1777953809 | 13.89° C | - | - | 30.99 mm | 0.89 m/s, 360° | - | - |
| 1777953214 | 13.89° C | - | - | 37.08 mm | 2.24 m/s, 360° | - | - |
| 1777952610 | 13.89° C | - | - | 37.08 mm | 1.34 m/s, 360° | - | - |
| 1777952028 | 13.33° C | 92% | 1011.8 hPa | 39.12 mm | 1.34 m/s, 360° | - | - |
| 1777951416 | 13.33° C | 92% | 1011.9 hPa | 38.1 mm | 1.34 m/s, 360° | - | - |
| 1777950828 | 13.89° C | 92% | 1012.4 hPa | 36.07 mm | 0.45 m/s, 360° | - | - |
| 1777950218 | 13.33° C | 91% | 1012.3 hPa | 36.07 mm | 0.45 m/s, 360° | - | - |
| 1777949605 | 13.33° C | 91% | 1012.1 hPa | 36.07 mm | 3.58 m/s, 360° | - | - |
| 1777949020 | 13.33° C | 91% | 1012 hPa | 36.07 mm | 2.68 m/s, 360° | - | - |
| 1777948420 | 13.33° C | 91% | 1012 hPa | 34.04 mm | 2.24 m/s, 360° | - | - |
| 1777947808 | 13.89° C | 92% | 1012.1 hPa | 35.05 mm | 2.68 m/s, 360° | - | - |
* Rain latest hour (hover to see other rain measurements)
** Current wind speed in m/s (hover to see current wind gust speed)